Orbital Elements at Epoch 2459200.5 (2020-Dec-17.0) TDB
Reference: JPL 22 (heliocentric ecliptic J2000)
Element | Value | Uncertainty (1-sigma) | Units |
e | .1144925654394009 | 4.7155e-08 | |
a | 2.575553235805582 | 1.8578e-08 | au |
q | 2.280671538412451 | 1.1591e-07 | au |
i | 12.64607562453371 | 5.1243e-06 | deg |
node | 138.451857538641 | 2.4219e-05 | deg |
peri | 112.5084172667934 | 3.8013e-05 | deg |
M | 145.9099112049965 | 3.3531e-05 | deg |
tp | 2458588.591458011626 (2019-Apr-15.09145801) | 0.00013699 | TDB |
period | 1509.747167252551 4.13 | 1.6336e-05 4.473e-08 | d yr |
n | .2384505219209192 | 2.5801e-09 | deg/d |
Q | 2.870434933198713 | 2.0706e-08 | au |
|
| | Orbit Determination Parameters
Additional Information
|